Regional Weather Roundup
Issued by NWS Pendleton, OR

Home | Current Version | Previous Version | Text Only | Print | Product List | Glossary On
Versions: 1 2 3 4 5 6 7 8 9 10 11 12 13 14 15 16 17 18 19 20 21 22 23 24 25 26 27 28 29 30 31 32 33 34 35 36 37 38 39 40 41 42 43 44 45 46 47 48 49 50
000
ASUS46 KPDT 041025
RWRPDT
PENDLETON REGIONAL WEATHER ROUNDUP
NATIONAL WEATHER SERVICE PENDLETON OREGON
300 AM PDT SAT JUL 4 2015

NOTE: FAIR INDICATES FEW OR NO CLOUDS BELOW 12,000 FEET WITH NO
SIGNIFICANT WEATHER AND/OR OBSTRUCTIONS TO VISIBILITY.

# INDICATES UNOFFICIAL STATION AND DATA

WAZ520-041110-
EAST SLOPES OF WASHINGTON CASCADES

CITY            SKY/WX      TMP DP  RH  WIND    PRES   REMARKS
#BULLFROG 2SW   N/A         67  50  54  CALM    27.50S
#BUMPING DAM    N/A         60  N/A N/A W5      N/A
#CLE ELUM HS    N/A         72  48  43  SW6     29.82S
#CLE ELUM LAKE  N/A         68  47  47  N1      29.71F
#CLIFFDEL 2NW   N/A         66  50  56  N2      N/A
#GLENWOOD       N/A         52  48  86  CALM    29.75S
#MANASTASH CYN  N/A         71  40  32  CALM    29.85F
#NELSON         N/A         72  52  49  CALM    29.74F
#NELSON 3SW     N/A         70  47  44  CALM    29.91S
#NILE           N/A         64  52  65  CALM    29.04F
#RONALD 2NW     N/A         68  47  47  NE2     29.80F
#SNOWDEN        N/A         66  40  38  CALM    N/A
#TEANAWAY 4NE   N/A         64  50  60  W1      N/A
#TROUT LAKE 1NE N/A         67  52  59  CALM    29.72F
$$

WAZ521-041110-
SIMCOE HIGHLANDS

CITY            SKY/WX      TMP DP  RH  WIND    PRES   REMARKS
#BICKLETON HS   N/A         70  30  22  CALM    N/A
#GOLDENDALE     N/A         71  53  53  W3      N/A
#GOLDENDALE 5WNWN/A         70  53  55  NW8     29.70S
#GOODNOE HILLS  N/A         74  53  48  NW5     N/A
#LYLE 6NE       N/A         73  55  53  SW1     29.71R
$$

WAZ026-041110-
KITTITAS VALLEY

CITY            SKY/WX      TMP DP  RH  WIND    PRES   REMARKS
ELLENSBURG AP   CLEAR       75  49  40  NW14    29.81S
YTC-OPS AREA    N/A         71  43  36  W33G45  29.82R
#ELLENSBURG CWU N/A         74  50  43  N13     29.65S
#ELLENSBURG 3NE N/A         73  50  44  N7      29.82S
#ELLENSBURG 1E  N/A         74  47  38  CALM    N/A
#KITTITAS 3S    N/A         66  51  58  CALM    29.68F
#THORP 6N       N/A         70  49  47  NW14G24 29.71S
$$

WAZ027-041110-
YAKIMA VALLEY

CITY            SKY/WX      TMP DP  RH  WIND    PRES   REMARKS
SUNNYSIDE AP    CLEAR       63  51  65  CALM    29.75R
YAKIMA AIRPORT  CLEAR       80  48  33  NW13    29.77S
#DONALD 2NE     N/A         80  22  12  W1      28.61R
#GRANDVIEW      N/A         71  51  49  CALM    29.71R
#MABTON         N/A         79  50  36  SW2     29.74R
#MOXEE 2E       N/A         77  29  17  NW6     29.72R
#NACHES 2SW     N/A         75  51  43  W9      29.81S
#OUTLOOK DOT    N/A         N/A N/A N/A W9      N/A
#SELAH 8E       N/A         63  39  41  SE5     N/A
#TERRACE HTS    N/A         79  47  32  NW5     29.64S
#TOPPENISH      N/A         80  50  35  N5      29.61S
#WAPATO 4NE     N/A         80  22  12  W1      28.61R
#WEST VALLEY    N/A         78  48  35  CALM    29.66S
#W YAKIMA       N/A         78  49  36  W3      29.68S
#WHITE SWAN 5E  N/A         65  54  68  NW1     29.70R
#WILEY CITY 3W  N/A         66  40  38  CALM    29.75S
$$

WAZ028-041110-
LOWER COLUMBIA BASIN...WASHINGTON

CITY            SKY/WX      TMP DP  RH  WIND    PRES   REMARKS
PASCO           CLEAR       76  55  48  SE3     29.74R
RICHLAND AWOS   CLEAR       75  52  45  NE3     29.73R
#BASIN CITY 5SW N/A         75  50  41  SW6     29.72S
#BENTON CITY    N/A         74  51  44  NW2     29.61R
#CONNELL 5N     N/A         72  53  51  SW2     29.67R
#CONNELL 5NW    N/A         70  55  59  CALM    29.64R
#ELTOPIA 6NW    N/A         72  56  57  S2      28.73R
#KAHLOTUS       N/A         74  47  38  W13     29.66S
#KENNEWICK      N/A         67  50  54  CALM    27.50S
#KENNEWICK 3S   N/A         77  53  43  SE2     29.70R
#PATERSON       N/A         75  53  46  CALM    29.70R
#PROSSER        N/A         74  46  37  CALM    29.68R
#SAGEMOOR 2W    N/A         74  52  46  CALM    29.54R
#TOUCHET 2S     N/A         81  50  34  S13     29.68R
#WEST PASCO     N/A         77  53  43  CALM    29.70R
$$

WAZ029-041110-
FOOTHILLS OF THE BLUES...WASHINGTON

CITY            SKY/WX      TMP DP  RH  WIND    PRES   REMARKS
WALLA WALLA AP  PTCLDY      79  47  32  S9      29.79R
#DAYTON SCHOOL  N/A         73  40  30  E3      29.82R
#LOWDEN 2SE     N/A         68  54  61  E3      29.72R
#PLEASANT VIEW 1N/A         72  46  39  S7      29.70R
#PRESCOTT       N/A         71  50  47  CALM    29.69R
#SUDBURY        N/A         62  N/A N/A CALM    N/A
#WAITSBURG 5S   N/A         75  48  38  S3      29.78R
#WAITSBURG 8N   N/A         73  21  14  S5      29.65R
#WALLA WALLA U  N/A         79  50  36  CALM    29.70R
#WHITMAN MISSIONN/A         71  54  55  CALM    29.73R
$$

WAZ030-041110-
BLUE MOUNTAINS...WASHINGTON

CITY            SKY/WX      TMP DP  RH  WIND    PRES   REMARKS
#DIXIE 5SE      N/A         87  45  23  W1      29.84R
$$

ORZ009-041-WAZ024-041110-
COLUMBIA RIVER GORGE

CITY            SKY/WX      TMP DP  RH  WIND    PRES   REMARKS
HOOD RIVER AP   CLEAR       75  54  48  W7      29.81F
THE DALLES AP   CLEAR       77  53  43  NW9     29.76S
#ARLINGTON AIRPON/A         75  53  46  W6      31.49S
#ARLINGTON HS   N/A         79  50  36  CALM    29.61R
#CELILO DOT     N/A         81  56  42  SW7     N/A
#MOSIER 1S      N/A         72  43  35  NW6     29.79R
#MURDOCK        N/A         77  61  58  W7      29.76S

$$

ORZ510-041110-
NORTH CENTRAL OREGON

CITY            SKY/WX      TMP DP  RH  WIND    PRES   REMARKS
#CHENOWITH 1W   N/A         71  52  51  NW29    N/A
#COW CYN RST AREN/A         71  N/A N/A SW8     N/A
#DUFUR 9E       N/A         75  40  28  W5      29.75S
#GRASS VALLEY 1SN/A         63  47  56  S12     29.75S
#KENT DOT       N/A         67  45  45  SW8     N/A
#MAUPIN SCHOOL  N/A         71  47  42  CALM    29.83S
#MORO SCHOOL    N/A         68  46  45  CALM    29.86R
#SHANIKO 5WSW   N/A         70  42  36  SW6     N/A
#SHANIKO 4NW    N/A         70  42  36  SW10    29.96F
#TYGH VALLEY 2NEN/A         65  44  46  CALM    29.75R
#WAPANITIA AIRPON/A         71  49  46  W6      29.74S
#WASCO DOT      N/A         73  52  48  W3      N/A
#WASCO AIRPORT  N/A         71  45  39  W6      N/A
#WASCO 5NE      N/A         72  51  48  CALM    29.71R
$$

ORZ511-041110-
CENTRAL OREGON

CITY            SKY/WX      TMP DP  RH  WIND    PRES   REMARKS
BEND AIRPORT    N/A         N/A N/A N/A MISG    N/A
MADRAS AIRPORT  PTCLDY      59  48  67  S6      29.94R
PRINEVILLE AP   CLOUDY      55  36  49  NE3     29.96S
REDMOND AIRPORT MOCLDY      60  43  53  S3      29.95F
#BEND 1SW       N/A         64  47  54  N1      N/A
#BEND-AWBREY    N/A         66  46  48  S7      29.74S
#BEND-KIM LN    N/A         65  48  54  S1      29.95F
#CROOKED RVR RANN/A         66  44  45  CALM    29.74R
#CULVER         N/A         68  48  49  CALM    29.89S
#LAKE BILLY CHINN/A         65  17  15  CALM    29.98R
#POWELL BUTTE 3EN/A         61  38  42  SE1     N/A
#POWELL BUTTE   N/A         69  40  35  W1      29.61S
#PRINEVILLE 3N  N/A         57  49  75  SW1     29.74R
#WARM SPRINGS   N/A         67  46  47  CALM    29.86R

$$


ORZ509-041110-
EAST SLOPES OF OREGON CASCADES

CITY            SKY/WX      TMP DP  RH  WIND    PRES   REMARKS
#CAMP SHERMAN   N/A         58  42  55  CALM    29.74R
#LA PINE 4NW    N/A         52  42  69  CALM    29.81S
#SISTERS AIRPOR N/A         56  47  72  N2      30.17S
#SISTERS ODOT   N/A         54  N/A N/A CALM    N/A
#SISTERS 1NW    N/A         55  40  57  N7      N/A
#SISTERS 3N     N/A         57  38  49  CALM    29.95S
#SUNRIVER       N/A         58  46  64  CALM    29.65S
#TUMALO 3W      N/A         66  43  43  SW6     29.62F
#WANOGA BUTTE D N/A         66  34  30  NE2     N/A

$$

ORZ044-041110-
LOWER COLUMBIA BASIN...OREGON

CITY            SKY/WX      TMP DP  RH  WIND    PRES   REMARKS
HERMISTON       CLEAR       79  45  30  W6      29.75R
#BOARDMAN SCHOOLN/A         75  52  45  W1      29.75R
#BOARDMAN 8SW   N/A         73  51  46  SW8     29.71R
#ECHO 8SW       N/A         81  44  27  W12     29.76S
#IONE SCHOOL    N/A         82  42  24  S2      29.77S
#IRRIGON 4NW    N/A         74  58  57  SW6     N/A
#UMATILLA SCHOOLN/A         75  61  62  CALM    29.78S
#UMATILLA       N/A         76  52  43  CALM    29.66R
$$

ORZ507-041110-
NORTHERN FOOTHILLS OF THE BLUES

CITY            SKY/WX      TMP DP  RH  WIND    PRES   REMARKS
PENDLETON AIRPT PTCLDY      69  44  40  E3      29.81R
#ADAMS 3WNW     N/A         60  43  53  N1      29.71R
#ATHENA         N/A         67  48  50  CALM    29.74R
#CAYUSE         N/A         72  47  41  E2      29.71R
#HELIX SCHOOL   N/A         67  47  49  CALM    29.72R
#HELIX 3N       N/A         70  44  39  S5      29.82R
#HOLDMAN 6E     N/A         76  45  33  N6      29.53R
#M-F GROVE ELEM N/A         74  44  34  CALM    29.79R
#M-FREEWATER 5SEN/A         72  48  43  NE7     29.81R
#PENDLETON DNTN N/A         69  40  35  NE3     29.78S
#PDT AQUATIC CTRN/A         71  41  34  E2      29.86R
#PDT SUNRIDGE   N/A         71  47  42  CALM    29.82R
#PENDLETON 7NW  N/A         71  49  46  CALM    27.36S
#PILOT ROCK     N/A         70  43  38  S6      29.86R
#TUTUILLA       N/A         73  45  37  S6      29.75R
#UMAPINE 2E     N/A         76  52  43  CALM    29.74R
#WESTON SCHOOL  N/A         72  44  37  W1      29.72R

$$

ORZ508-041110-
SOUTHERN FOOTHILLS OF THE BLUES

CITY            SKY/WX      TMP DP  RH  WIND    PRES   REMARKS
#AJAX           N/A         74  42  32  S7      29.82R
#CONDON SCHOOL  N/A         67  42  40  S2      29.88S
#CONDON 5W      N/A         70  43  38  SW6     29.91S
#FOSSIL SCHOOL  N/A         60  38  44  CALM    29.88S
#HEPPNER EOC    N/A         71  41  34  E1      29.66S
#HEPPNER 4NE    N/A         69  39  33  CALM    29.70S
#LEXINGTON 2SE  N/A         70  43  38  SE6     29.80S
#RUGGS 5NE      N/A         68  38  33  S1      30.07R
#RUGGS 2SW      N/A         71  37  29  SW7     29.73R

$$

ORZ502-503-041110-
BLUE MOUNTAINS

CITY            SKY/WX      TMP DP  RH  WIND    PRES   REMARKS
MEACHAM         PTCLDY      49  43  80  CALM    29.97R
#BATTLE MTN DOT N/A         65  53  65  CALM    N/A
#HEPPNER 15SE   N/A         61  42  50  CALM    29.90S
#LONG CREEK HS  N/A         60  43  53  CALM    29.93S
#N POWDER DOT   N/A         58  47  67  CALM    N/A
#PIKES PEAK     N/A         74  46  37  SW17    27.99S
#TOLLGATE       N/A         63  46  54  CALM    29.96S
#TROY SCHOOL    N/A         66  47  50  W1      29.58R
#UKIAH          N/A         49  43  80  CALM    29.82S
#WESTON 4E      N/A         71  45  39  CALM    29.64S
$$

ORZ505-041110-
JOHN DAY BASIN

CITY            SKY/WX      TMP DP  RH  WIND    PRES   REMARKS
JOHN DAY        CLOUDY      71  34  26  CALM    29.97S
#JOHN DAY KJDY  N/A         60  50  69  E2      30.01R
#DAYVILLE SCHOOLN/A         71  33  25  CALM    29.89R
#MITCHELL       N/A         63  40  43  E1      30.11S
#MONUMENT HS    N/A         63  41  44  CALM    29.90R
#MT. VERNON 5SE N/A         70  34  26  CALM    29.94S
#WINLOCK        N/A         63  39  41  CALM    30.02S
$$

ORZ506-041110-
OCHOCO AND JOHN DAY HIGHLANDS

CITY            SKY/WX      TMP DP  RH  WIND    PRES   REMARKS
#HORSE RIDGE DO N/A         54  40  59  NE2     N/A
#KEYES SMT DOT  N/A         66  34  30  N8      N/A
#PAULINA SCHOOL N/A         59  33  37  CALM    29.96S
#PRAIRIE CITY   N/A         56  45  66  E1      29.95R
#SENECA         N/A         53  N/A N/A CALM    N/A
#SENECA 9NW     N/A         51  35  54  CALM    29.73S
$$

ORZ049-041110-
GRANDE RONDE VALLEY

CITY            SKY/WX      TMP DP  RH  WIND    PRES   REMARKS
LA GRANDE       PTCLDY      59  37  44  SW3     29.89R
#COVE           N/A         63  46  54  NE1     29.91R
#ELGIN 3N       N/A         54  41  61  CALM    29.89S
#ELGIN 1E       N/A         56  44  64  CALM    N/A
#IMBLER SCHOOL  N/A         65  46  50  CALM    29.86R
#ISLAND CITY 4N N/A         60  53  78  CALM    29.86S
#LADD CYN DOT   N/A         66  40  38  SE12    N/A
#UNION 1S       N/A         59  46  62  CALM    29.64R
$$

ORZ050-041110-
WALLOWA COUNTY

CITY            SKY/WX      TMP DP  RH  WIND    PRES   REMARKS
JOSEPH AIRPORT  N/A         61  41  48  S3      29.99R
#IMNAHA SCHOOL  N/A         73  46  38  S2      29.84R
#IMNAHA 10S     N/A         76  51  42  SW3     30.01S
#JOSEPH 3N      N/A         52  43  71  NE1     29.98S
#JOSEPH 3W      N/A         65  25  22  SW2     29.85S
#LOSTINE        N/A         54  46  74  CALM    29.54R
#MT HOWARD 8000 N/A         61  31  32  W2      30.27S
#PROMISE 1S     N/A         64  47  54  CALM    29.79R
#WALLOWA SCHOOL N/A         54  48  80  CALM    29.89R



$$



USA.gov is the U.S. government's official web portal to all federal, state and local government web resources and services.